Regional Weather Roundup
Issued by NWS Mt. Holly, NJ

Home | Current Version | Previous Version | Text Only | Print | Product List | Glossary On
Versions: 1 2 3 4 5 6 7 8 9 10 11 12 13 14 15 16 17 18 19 20 21 22 23 24 25 26 27 28 29 30 31 32 33 34 35 36 37 38 39 40 41 42 43 44 45 46 47 48 49 50
829
ASUS41 KPHI 221813
RWRPHI

REGIONAL WEATHER ROUNDUP
NATIONAL WEATHER SERVICE MOUNT HOLLY NJ
200 PM EDT TUE MAY 22 2018

NOTE:  "FAIR" INDICATES FEW OR NO CLOUDS BELOW 12,000 FEET WITH NO
SIGNIFICANT WEATHER AND/OR OBSTRUCTIONS TO VISIBILITY.

 * = STATION DOES NOT REPORT PRECIPITATION (E.G. RAIN, SNOW, ETC.)
        OR FOG.

NJZ015>026-221900-
SOUTHERN NEW JERSEY

CITY           SKY/WX    TMP DP  RH WIND       PRES   REMARKS
POMONA         PTSUNNY   70  60  70 SE9       30.08F
6HR MIN TEMP:  61; 6HR MAX TEMP:  71;

WILDWOOD*      CLOUDY    67  61  81 SE10      30.08F
MILLVILLE      LGT RAIN  65  60  84 CALM      30.08F
WRIGHTSTOWN    LGT RAIN  67  57  70 S5        30.06F
MOUNT HOLLY    LGT RAIN  65  61  87 CALM      30.09F
TRENTON        LGT RAIN  65  54  67 SW5       30.09F
6HR MIN TEMP:  60; 6HR MAX TEMP:  68; 6HR PCP:  0.01;


$$
NJZ001>014-221900-
NORTHERN NEW JERSEY

CITY           SKY/WX    TMP DP  RH WIND       PRES   REMARKS
SUSSEX         LGT RAIN  64  56  75 S6        30.11S
ANDOVER*         N/A     62  54  74 CALM      30.12S
MORRISTOWN     CLOUDY    66  54  63 SW9       30.11F
NEWARK         CLOUDY    66  53  63 SE6       30.10F
TETERBORO      CLOUDY    66  52  60 S8        30.09F
CALDWELL       LGT RAIN  67  53  61 S5        30.11S
SOMERVILLE     LGT RAIN  65  50  58 CALM      30.09F
ALLAIRE*       CLOUDY    65  55  70 SE6       30.11F
TOMS RIVER*    PTSUNNY   68  55  63 SE9       30.09F

$$
PAZ043-044-047-054-055-060>062-066>071-221900-
EASTERN PENNSYLVANIA

CITY           SKY/WX    TMP DP  RH WIND       PRES   REMARKS
PHILADELPHIA   HVY RAIN  61  58  90 N5        30.10S FOG
6HR MIN TEMP:  61; 6HR MAX TEMP:  66; 6HR PCP:  0.13;

NORTH PHILA    RAIN      64  57  78 W7        30.12S
BLUE BELL*     CLOUDY    57  57 100 CALM      30.12S VSB 3/4
DOYLESTOWN     HVY RAIN  59  58  96 CALM      30.10F FOG
QUAKERTOWN*    CLOUDY    59  57  94 CALM      30.11F FOG
PERKASIE*      RAIN      57  57 100 CALM      30.12F
POTTSTOWN      HVY RAIN  58  58 100 E5        30.10F FOG
LANCASTER      LGT RAIN  61  59  93 SE9       30.07F
COATESVILLE    LGT RAIN  59  57  94 SE5       30.10F
READING        LGT RAIN  61  61 100 SE5       30.06F FOG
6HR MIN TEMP:  61; 6HR MAX TEMP:  64; 6HR PCP:  0.20;

ALLENTOWN      HVY RAIN  59  52  77 E6        30.10F
6HR MIN TEMP:  61; 6HR MAX TEMP:  67; 6HR PCP:  0.13;

MOUNT POCONO   LGT RAIN  54  50  86 SE9       30.11F
6HR MIN TEMP:  54; 6HR MAX TEMP:  57; 6HR PCP:  0.22;

HAZLETON       DRIZZLE   59  55  88 SE5       30.11F
LEHIGHTON      RAIN      59  57  94 E3        30.10F
WILKES BARRE   CLOUDY    58  52  80 CALM      30.09F

$$
DEZALL-MDZ008-012-015-019-020-221900-
DELAWARE AND EASTERN MARYLAND

CITY           SKY/WX    TMP DP  RH WIND       PRES   REMARKS
WILMINGTON     RAIN      62  61  96 SE7       30.10F FOG
6HR MIN TEMP:  60; 6HR MAX TEMP:  67; 6HR PCP:  0.48;

DOVER          LGT RAIN  66  64  94 E8        30.06F
GEORGETOWN     RAIN      73  66  78 SW6       30.07F
6HR MIN TEMP:  64; 6HR MAX TEMP:  77; 6HR PCP:  0.02;

EASTON         PTSUNNY   75  68  78 S12       30.09F
PATUXENT       PTSUNNY   80  68  66 S7        30.04F
OCEAN CITY     CLOUDY    69  64  84 S7        30.08F
WALLOPS ISLAND PTSUNNY   75  68  78 S7        30.08F
CAMBRIDGE      PTSUNNY   75  68  78 S12       30.05F
SALISBURY      PTSUNNY   79  68  69 SW10      30.06F

$$
PAZ001-021-NYZ056-072-MDZ011-DCZ001-221900-
OTHER NEARBY LOCATIONS

CITY           SKY/WX    TMP DP  RH WIND       PRES   REMARKS
HARRISBURG     LGT RAIN  65  62  90 SE5       30.05F
STATE COLLEGE  RAIN      66  66 100 CALM      30.03F FOG
WILLIAMSPORT   CLOUDY    66  61  84 E3        30.02F
BINGHAMTON     CLOUDY    58  57  97 S7        30.03F
NEW YORK CITY  LGT RAIN  64  52  64 CALM      30.13
BALTIMORE      CLOUDY    68  66  93 E6        30.05F
WASHINGTON DC  CLOUDY    73  66  78 S9        30.05F

$$




USA.gov is the U.S. government's official web portal to all federal, state and local government web resources and services.